Weather History for Jackson, WY

Change the Weather History Date:

Tuesday, March 19, 2013

  Actual Average Record
Temperature  
Mean Temperature 24 °F -  
Max Temperature 37 °F 41 °F 55 °F (2007)
Min Temperature 12 °F 13 °F -15 °F (1971)
Degree Days  
Heating Degree Days 40    
Moisture  
Dew Point 5 °F    
Average Humidity 53    
Maximum Humidity 79    
Minimum Humidity 10    
Precipitation  
Precipitation 0.00 in - - ()
Sea Level Pressure  
Sea Level Pressure 30.12 in    
Wind  
Wind Speed 6 mph (South)    
Max Wind Speed 13 mph    
Max Gust Speed 16 mph    
Visibility 10 miles    
Events      
Averages and records for this station are not official NWS values.
T = Trace of Precipitation, MM = Missing Value Source: NWS Daily Summary

Daily Weather History Graph

Daily Weather History Graph

Search for Another Location

Airport:

Trip Planner

Search our weather history database for the weather conditions in past years. The results will help you decide how hot, cold, wet, or windy it might be!

Date:

Astronomy

Mar. 19, 2013 Rise Set
Actual Time 7:27 AM MDT 7:34 PM MDT
Civil Twilight 6:58 AM MDT 8:03 PM MDT
Nautical Twilight 6:25 AM MDT 8:36 PM MDT
Astronomical Twilight 5:51 AM MDT 9:10 PM MDT
Moon 12:10 PM MDT 2:34 AM MDT
Length of Visible Light 13h 04m
Length of Day
12h 07m
Waxing Crescent, 50% of the Moon is Illuminated
Mar 19
Waxing Crescent
Mar 27
Full
Apr 2
Last Quarter
Apr 10
New
Apr 18
First Quarter

Hourly Weather History & Observations

Time (MDT) Temp. Windchill Dew Point Humidity Pressure Visibility Wind Dir Wind Speed Gust Speed Precip Events Conditions
12:15 AM 26.6 °F 19.1 °F 10.4 °F 51% 29.97 in 10.0 mi West 6.9 mph - N/A   Mostly Cloudy
12:35 AM 26.6 °F 20.0 °F 10.4 °F 51% 29.98 in 10.0 mi WNW 5.8 mph - N/A   Scattered Clouds
12:55 AM 24.8 °F 16.9 °F 8.6 °F 50% 29.99 in 10.0 mi WSW 6.9 mph - N/A   Partly Cloudy
1:35 AM 24.8 °F 20.5 °F 8.6 °F 50% 30.00 in 10.0 mi ESE 3.5 mph - N/A   Partly Cloudy
1:55 AM 24.8 °F 19.1 °F 6.8 °F 46% 30.00 in 10.0 mi SW 4.6 mph - N/A   Clear
2:15 AM 24.8 °F 15.3 °F 8.6 °F 50% 30.01 in 10.0 mi SSE 9.2 mph - N/A   Partly Cloudy
2:35 AM 21.2 °F 12.6 °F 8.6 °F 58% 30.02 in 10.0 mi South 6.9 mph - N/A   Partly Cloudy
2:55 AM 21.2 °F 12.6 °F 8.6 °F 58% 30.03 in 10.0 mi South 6.9 mph - N/A   Clear
3:15 AM 21.2 °F 12.6 °F 8.6 °F 58% 30.03 in 10.0 mi SSW 6.9 mph - N/A   Scattered Clouds
3:55 AM 19.4 °F 14.3 °F 8.6 °F 63% 30.03 in 10.0 mi WSW 3.5 mph - N/A   Mostly Cloudy
4:15 AM 17.6 °F 8.2 °F 8.6 °F 68% 30.04 in 10.0 mi WSW 6.9 mph - N/A   Mostly Cloudy
4:55 AM 15.8 °F 6.1 °F 6.8 °F 68% 30.04 in 10.0 mi ESE 6.9 mph - N/A   Partly Cloudy
5:15 AM 15.8 °F 7.2 °F 8.6 °F 73% 30.05 in 10.0 mi SSE 5.8 mph - N/A   Clear
5:35 AM 17.6 °F 8.2 °F 8.6 °F 68% 30.05 in 10.0 mi SSE 6.9 mph - N/A   Clear
5:55 AM 17.6 °F 9.3 °F 8.6 °F 68% 30.06 in 10.0 mi SE 5.8 mph - N/A   Clear
6:15 AM 17.6 °F 9.3 °F 8.6 °F 68% 30.07 in 10.0 mi SSE 5.8 mph - N/A   Clear
6:35 AM 17.6 °F 8.2 °F 6.8 °F 63% 30.09 in 10.0 mi SSE 6.9 mph - N/A   Clear
6:51 AM 14.0 °F 5.1 °F 6.8 °F 73% 30.10 in 10.0 mi South 5.8 mph - N/A   Clear
7:51 AM 12.2 °F - 5.0 °F 73% 30.12 in 10.0 mi Calm Calm - N/A   Clear
8:51 AM 19.4 °F 11.5 °F 8.6 °F 63% 30.15 in 10.0 mi SSE 5.8 mph - N/A   Clear
9:55 AM 23.0 °F - 8.6 °F 54% 30.17 in 10.0 mi Calm Calm - N/A   Clear
10:54 AM 28.4 °F 18.0 °F 8.6 °F 43% 30.16 in 10.0 mi South 12.7 mph - N/A   Clear
11:51 AM 30.2 °F 22.6 °F 3.2 °F 32% 30.17 in 10.0 mi SE 8.1 mph 16.1 mph N/A   Clear
12:51 PM 33.8 °F 27.7 °F -0.4 °F 23% 30.17 in 10.0 mi East 6.9 mph - N/A   Clear
2:58 PM 35.6 °F 30.7 °F -7.6 °F 16% 30.19 in 10.0 mi West 5.8 mph - N/A   Clear
3:58 PM 37.4 °F 32.8 °F -5.8 °F 16% 30.19 in 10.0 mi NW 5.8 mph - N/A   Clear
4:58 PM 37.4 °F 32.8 °F -9.4 °F 13% 30.19 in 10.0 mi West 5.8 mph - N/A   Clear
5:52 PM 37.4 °F 34.9 °F -14.8 °F 10% 30.19 in 10.0 mi West 3.5 mph - N/A   Clear
6:53 PM 35.6 °F 31.7 °F -4.0 °F 18% 30.18 in 10.0 mi South 4.6 mph - N/A   Clear
7:53 PM 28.4 °F - 3.2 °F 34% 30.19 in 10.0 mi Calm Calm - N/A   Clear
8:51 PM 26.6 °F - 6.8 °F 43% 30.18 in 10.0 mi Calm Calm - N/A   Clear
8:55 PM 24.8 °F 19.1 °F 6.8 °F 46% 30.19 in 10.0 mi East 4.6 mph - N/A   Clear
9:15 PM 21.2 °F - 6.8 °F 54% 30.20 in 10.0 mi Calm Calm - N/A   Clear
9:35 PM 19.4 °F 12.8 °F 8.6 °F 63% 30.19 in 10.0 mi North 4.6 mph - N/A   Clear
9:55 PM 21.2 °F 16.4 °F 5.0 °F 50% 30.20 in 10.0 mi North 3.5 mph - N/A   Clear
10:15 PM 17.6 °F 12.3 °F 6.8 °F 63% 30.20 in 10.0 mi North 3.5 mph - N/A   Clear
10:35 PM 15.8 °F 8.6 °F 6.8 °F 68% 30.20 in 10.0 mi North 4.6 mph - N/A   Clear
10:55 PM 15.8 °F 6.1 °F 6.8 °F 68% 30.20 in 10.0 mi North 6.9 mph - N/A   Clear
11:15 PM 15.8 °F 5.1 °F 6.8 °F 68% 30.19 in 10.0 mi North 8.1 mph - N/A   Clear
11:35 PM 12.2 °F -1.8 °F 6.8 °F 79% 30.19 in 10.0 mi North 11.5 mph - N/A   Clear
11:55 PM 14.0 °F 0.5 °F 6.8 °F 73% 30.19 in 10.0 mi North 11.5 mph - N/A   Clear